GFSMW_925_temp_081.txt.gz
Temp
19 20 21 21 20 20 21 21 21 20 20 19 19 19 19 19 20 21 21 21 21 21 20 19 19 19 19 19 19 18 18 17 17 16 17 17 17 17 17 17 17 17 17
18 18 19 20 21 20 20 21 21 20 20 20 20 20 20 20 20 21 21 20 20 20 20 20 20 19 19 19 19 18 18 17 17 16 14 14 16 17 17 17 17 16 16
15 15 15 16 19 20 19 19 20 20 20 21 19 19 19 19 20 20 20 20 19 19 19 19 20 19 19 19 19 18 17 16 17 16 16 12 13 11 16 16 16 15 15
15 14 14 15 16 17 18 18 18 19 19 19 19 19 19 18 19 19 20 20 20 20 19 19 19 19 19 18 18 18 17 17 15 15 15 15 14 13 12 15 15 16 16
14 13 13 15 15 16 17 18 18 18 18 18 19 18 18 18 19 19 18 19 19 19 18 18 18 18 18 17 17 17 17 16 15 15 15 14 13 12 11 13 13 12 13
13 12 14 14 14 15 15 15 16 16 17 17 17 18 18 18 17 17 17 18 18 18 18 18 18 18 17 17 17 17 16 15 15 14 14 14 13 11 11 10 12 11 12
11 11 11 12 13 14 14 14 14 13 14 15 16 16 17 17 17 17 17 17 18 18 18 18 18 18 18 17 17 16 16 15 14 14 14 14 13 13 13 12 11 9 8
11 11 11 12 12 13 13 13 13 13 13 13 13 13 14 15 15 16 16 16 16 17 17 17 17 16 17 17 16 15 14 14 14 13 13 13 13 12 12 11 11 7 6
10 10 10 11 11 12 12 12 12 11 12 12 12 12 12 12 13 13 14 14 13 14 14 15 15 15 14 14 14 15 14 15 13 12 12 12 11 12 10 10 9 9 8
10 9 9 10 11 11 11 11 11 11 10 11 11 11 11 11 11 11 12 12 12 12 13 13 13 13 13 13 13 13 13 11 10 11 10 9 9 9 9 8 8 7 7
9 9 8 9 10 10 10 10 10 10 9 9 9 9 9 9 10 10 10 10 10 11 11 11 11 11 11 10 10 10 9 8 7 7 7 6 6 6 6 7 6 6 6
9 8 8 8 9 9 9 9 9 9 8 8 8 8 8 8 8 8 8 8 9 9 9 9 9 9 9 8 8 7 7 7 6 6 5 5 5 5 5 5 4 4 4
8 7 7 7 8 8 8 8 8 7 7 7 7 7 6 6 6 6 6 6 7 7 7 7 7 7 7 7 6 6 5 5 5 5 4 3 3 3 3 3 3 3 3
9 7 7 7 7 8 8 7 7 7 6 6 6 5 5 5 5 4 5 5 5 5 5 5 5 5 5 5 4 4 4 3 3 3 2 2 2 2 2 2 1 1 1
8 8 7 6 7 7 7 7 6 6 5 5 4 4 3 3 3 3 3 3 3 3 3 3 3 3 3 3 3 3 2 2 1 0 0 0 0 0 1 1 0 1 0
9 8 7 6 6 6 6 6 6 5 5 4 3 3 2 2 2 1 1 1 1 1 1 1 1 0 0 1 2 2 1 -0 -0 -1 -0 -0 -0 -1 -1 -1 -1 -1 -1
9 9 8 7 7 7 7 6 5 5 4 3 2 2 2 1 1 1 1 1 1 0 0 0 0 0 0 -0 1 1 1 1 -0 -1 -1 -0 -1 -1 -1 -2 -1 -1 -2
9 8 7 7 8 7 6 6 5 4 4 3 2 2 1 1 0 0 0 0 0 0 0 0 0 0 -0 -1 1 1 0 -1 -1 -1 -1 -1 -2 -2 -2 -2 -2 -2 -2
9 9 9 8 8 7 6 5 4 3 3 2 1 1 1 -0 -0 -1 -1 -0 -0 -0 -0 0 -0 -0 -1 0 0 -0 -0 -1 -1 -2 -2 -2 -2 -2 -3 -2 -3 -2 -3
8 8 8 8 7 6 6 5 3 3 2 2 1 1 0 -0 -1 -1 -1 -1 -1 -1 -1 -1 -1 -1 -1 -2 -1 -1 -1 -1 -2 -2 -2 -3 -3 -3 -3 -3 -3 -3 -3
7 7 7 7 6 6 5 4 3 2 2 1 1 0 -0 -1 -1 -1 -1 -2 -2 -1 -1 -1 -1 -1 -1 -2 -2 -1 -1 -2 -2 -2 -3 -3 -3 -3 -4 -4 -4 -4 -4
5 6 5 5 5 5 4 3 3 3 2 1 0 -0 -0 -1 -1 -1 -2 -2 -2 -2 -2 -1 -2 -2 -2 -2 -2 -2 -2 -2 -3 -3 -3 -3 -4 -4 -4 -4 -4 -4 -4
5 5 5 4 4 4 4 3 3 2 1 0 -0 -0 -1 -1 -1 -2 -2 -2 -2 -1 -1 -2 -1 -2 -2 -2 -2 -2 -3 -3 -3 -3 -4 -4 -4 -4 -4 -4 -4 -4 -4
4 4 4 3 2 3 3 3 2 1 1 -0 -0 -1 -1 -1 -1 -2 -1 -1 -1 -1 -1 -1 -1 -1 -2 -2 -2 -2 -3 -3 -3 -4 -4 -4 -4 -4 -4 -4 -4 -4 -5
5 4 3 3 2 2 2 2 1 1 0 -0 -1 -1 -1 -1 -2 -1 -0 -0 0 0 0 0 -0 -1 -1 -1 -2 -2 -3 -3 -4 -4 -4 -4 -4 -4 -5 -5 -5 -5 -5
4 3 3 3 2 2 1 1 0 0 -0 -0 -1 -1 -1 -1 -1 -1 -1 -0 -0 0 0 0 -0 -0 -1 -1 -3 -3 -4 -4 -4 -4 -5 -5 -5 -5 -5 -5 -5 -6 -6

GFSMW_925_temp_084.txt.gz
Temp
18 20 21 20 19 20 19 19 19 19 19 19 18 18 19 19 19 19 20 20 20 20 19 19 19 19 18 18 18 17 17 17 17 16 16 17 18 17 17 17 17 17 16
17 18 20 21 20 20 20 19 19 19 19 19 19 19 19 19 20 20 20 20 19 20 20 19 19 19 18 18 18 17 17 17 16 16 14 14 16 18 18 17 17 17 16
19 16 16 18 19 20 20 19 19 18 19 19 19 18 18 18 18 18 19 19 19 19 19 19 19 19 18 18 18 18 17 16 16 16 16 13 13 13 17 18 18 17 17
15 14 14 15 16 18 18 19 18 18 18 18 18 18 18 18 19 19 19 19 19 18 19 19 19 19 18 18 18 18 17 16 15 15 15 15 14 13 13 15 16 16 16
14 14 13 14 15 15 16 17 17 17 18 18 17 17 17 17 18 18 18 18 18 18 18 18 18 18 18 18 17 17 16 16 15 15 14 14 13 12 11 13 13 13 14
14 13 13 13 13 14 15 16 17 17 17 18 18 18 17 17 17 17 17 17 17 18 18 18 18 18 18 17 17 16 16 16 15 15 14 14 13 11 11 10 11 12 12
13 12 11 11 12 13 14 14 15 15 15 16 17 17 17 16 16 16 16 16 17 17 17 17 17 17 17 17 16 16 16 15 15 14 14 14 14 13 13 12 11 10 9
12 12 11 11 11 12 12 13 13 13 13 13 14 14 15 15 15 15 15 15 15 16 16 16 16 16 16 16 15 15 15 14 14 13 13 13 13 12 12 11 10 9 7
10 10 10 10 11 11 11 12 12 12 12 12 12 12 13 13 13 13 13 13 13 12 13 13 13 14 14 14 14 14 14 13 13 13 12 11 10 10 10 10 10 9 9
8 8 8 9 10 11 11 11 11 11 11 11 11 11 11 11 11 11 11 11 11 11 12 12 13 13 13 13 13 13 12 12 13 11 9 8 8 9 9 8 9 8 8
8 7 7 9 9 10 10 10 10 10 10 10 9 9 9 9 10 10 10 10 10 10 10 11 11 11 11 11 11 11 10 12 11 8 7 7 6 6 6 6 6 6 6
8 7 7 7 8 8 9 9 9 9 9 8 8 8 8 8 8 8 8 9 9 9 9 9 10 10 10 9 9 9 8 8 7 6 6 5 5 5 5 5 6 5 4
7 6 6 6 7 7 8 8 8 8 8 7 7 7 7 7 7 6 7 7 7 7 7 8 8 8 7 7 7 7 6 5 5 5 5 4 4 3 3 3 3 3 3
8 6 6 6 7 7 7 8 7 7 7 7 6 6 5 5 5 5 5 5 5 6 6 6 6 5 5 5 5 4 4 4 3 3 3 2 2 3 2 2 2 2 2
7 7 6 5 6 7 7 7 6 6 6 6 5 5 4 4 4 4 3 3 3 3 3 4 3 3 3 3 3 2 2 2 1 0 0 0 0 1 1 1 1 1 1
9 7 7 5 6 6 6 6 6 6 5 5 4 3 3 2 2 2 1 2 2 2 2 2 1 1 0 1 1 1 -0 -0 -0 -0 0 0 0 -0 -0 -1 -1 -1 -0
9 8 7 6 7 7 7 6 6 5 5 4 3 2 2 2 2 1 1 1 1 0 0 0 0 0 0 -0 1 1 1 -0 -1 -0 -0 -0 -1 -1 -1 -2 -1 -2 -2
9 8 8 7 8 8 7 7 6 5 4 3 3 2 2 1 1 1 0 0 0 0 0 0 0 -0 -0 -1 0 0 0 -0 -0 -1 -1 -1 -2 -2 -2 -2 -2 -2 -2
8 10 10 9 8 8 7 6 5 4 3 3 2 2 2 1 0 0 -0 -0 0 -0 -0 -0 -1 -1 -1 -1 -0 0 -0 -1 -1 -2 -2 -2 -2 -2 -3 -2 -2 -3 -3
9 9 9 8 8 7 6 5 4 3 3 3 2 1 1 1 -0 -0 -0 -0 -0 -0 -0 -1 -1 -1 -1 -1 -0 -1 -1 -1 -2 -2 -2 -3 -3 -3 -3 -3 -3 -3 -3
7 7 7 7 7 6 6 4 4 3 3 3 2 1 0 0 -0 -1 -1 -1 -1 -1 -1 -1 -1 -1 -1 -2 -2 -1 -1 -1 -2 -2 -3 -3 -3 -3 -3 -4 -3 -4 -4
5 6 5 5 5 6 5 4 3 4 3 2 1 0 -0 -0 -1 -1 -1 -1 -1 -1 -1 -1 -1 -2 -2 -2 -2 -2 -2 -2 -2 -2 -3 -3 -3 -4 -4 -4 -4 -4 -4
5 5 5 4 4 5 5 4 3 3 2 1 0 -0 -0 -1 -1 -1 -2 -2 -2 -1 -2 -2 -2 -2 -2 -2 -2 -2 -3 -3 -3 -3 -3 -4 -4 -4 -3 -4 -4 -4 -4
5 5 4 4 3 4 4 4 3 3 2 1 0 -0 -1 -1 -1 -1 -2 -2 -2 -2 -2 -2 -1 -1 -2 -2 -2 -2 -2 -3 -3 -3 -3 -3 -4 -4 -4 -4 -4 -4 -4
5 5 4 4 4 3 3 3 3 2 1 0 -0 -1 -1 -1 -1 -2 -1 -1 -1 0 0 -0 -0 -1 -1 -0 -1 -2 -2 -2 -3 -4 -4 -4 -4 -4 -4 -4 -5 -5 -5
5 4 4 4 3 3 2 1 1 1 1 -0 -0 -1 -1 -1 -1 -2 -2 -1 -1 -0 -0 -0 -0 0 -0 -1 -1 -2 -3 -3 -4 -4 -4 -4 -4 -4 -5 -5 -5 -5 -6

GFSMW_925_temp_087.txt.gz
Temp
18 18 19 19 18 19 19 21 22 21 21 19 18 18 18 19 19 19 19 19 19 19 19 19 19 18 18 18 18 17 17 17 17 15 16 17 18 18 18 18 18 18 17
18 17 19 20 20 20 21 21 19 19 20 18 18 18 18 18 19 19 19 19 19 19 18 18 18 18 18 18 18 17 16 16 16 16 14 17 17 18 18 18 19 18 17
19 19 18 19 19 20 19 20 20 19 18 18 18 18 18 18 18 18 19 19 19 19 19 19 19 18 18 18 17 17 17 15 16 16 16 14 15 14 17 17 17 17 17
18 16 16 17 19 19 19 19 19 18 18 18 17 18 18 17 18 19 19 19 19 18 19 19 18 18 18 18 18 17 17 16 15 15 15 15 15 14 15 16 16 16 16
17 17 16 16 16 17 17 17 18 17 17 17 17 17 17 17 17 17 18 18 18 18 18 17 18 18 18 18 17 17 17 16 15 15 15 14 13 13 12 12 14 14 14
17 17 16 15 15 15 15 16 17 16 16 17 17 17 16 16 16 16 16 17 17 17 17 17 17 17 17 17 17 17 16 16 15 15 15 14 13 12 11 11 11 12 13
17 16 14 12 13 13 14 14 15 15 15 16 16 16 17 17 17 16 16 16 16 16 16 16 16 16 17 16 16 16 16 15 15 14 14 14 13 13 13 12 11 11 10
14 14 13 12 12 13 13 13 13 14 14 15 15 15 15 15 15 15 15 15 15 15 15 15 16 16 15 15 15 15 15 14 14 13 13 13 13 12 12 11 11 10 8
12 13 12 11 11 11 12 12 13 13 13 13 13 14 13 13 13 13 13 13 13 13 13 13 13 12 14 15 15 14 14 14 13 13 12 11 11 10 10 10 9 10 10
10 10 10 10 10 10 11 11 11 11 11 12 12 12 12 12 12 11 11 11 11 11 11 12 12 12 13 13 13 13 13 12 11 11 10 9 8 8 8 8 8 8 8
9 9 9 8 9 9 10 10 10 11 10 10 10 10 10 10 10 10 10 10 10 10 10 11 12 11 11 11 12 11 11 10 10 9 10 8 7 7 6 6 6 6 6
9 9 8 7 8 8 8 9 9 9 9 9 9 9 9 9 9 9 9 9 9 9 9 9 10 10 10 10 9 9 9 9 8 7 7 6 5 5 5 5 6 6 5
8 8 7 7 7 8 8 8 8 8 8 8 8 8 8 8 7 7 7 7 7 7 7 7 8 8 8 8 8 7 7 6 6 5 5 5 5 5 5 5 4 4 4
8 8 7 7 6 7 8 8 7 7 7 7 7 7 6 6 6 6 5 5 6 6 6 6 6 6 6 6 6 5 5 5 4 4 4 4 4 4 3 3 3 3 3
8 8 7 7 6 6 7 7 7 7 6 6 6 5 5 5 4 4 4 4 4 4 4 5 4 4 4 4 4 4 4 3 2 2 2 2 2 2 2 2 2 2 2
9 8 7 6 6 6 7 7 7 7 6 6 5 5 4 3 3 3 3 3 2 2 2 2 2 2 1 1 2 2 2 1 1 1 1 0 0 0 0 -0 -0 1 1
10 9 8 7 7 7 7 7 7 6 5 5 4 3 3 3 3 2 2 2 2 1 1 1 1 1 0 0 -0 0 0 0 0 0 0 -0 -0 -0 -0 -1 -1 -1 -1
9 9 9 8 8 8 7 7 6 5 4 4 3 3 2 2 2 1 1 1 1 1 0 0 0 -0 -0 -0 0 0 0 -0 -0 -0 -0 -1 -1 -1 -1 -1 -1 -2 -2
9 10 10 10 9 8 8 7 5 5 4 3 3 2 2 2 1 1 1 0 0 0 0 0 -0 -0 -1 -1 1 0 0 -1 -1 -1 -1 -1 -2 -2 -1 -1 -2 -2 -3
10 10 10 9 9 8 7 6 5 4 4 4 3 2 2 2 1 1 0 0 -0 -0 -0 -0 -1 -1 -1 -1 -0 -0 -0 -1 -1 -2 -2 -2 -2 -3 -3 -2 -2 -3 -3
7 8 8 8 7 7 6 5 5 4 5 4 3 2 2 1 1 0 -0 -0 -0 -1 -1 -1 -1 -1 -1 -2 -1 -1 -1 -1 -2 -2 -2 -2 -3 -3 -3 -3 -3 -3 -3
6 6 6 6 6 6 6 5 4 5 4 3 2 2 1 0 -0 -0 -1 -1 -1 -1 -1 -1 -2 -1 -1 -2 -2 -1 -1 -1 -2 -2 -2 -3 -3 -3 -3 -3 -4 -3 -4
5 5 5 5 5 5 5 5 5 4 3 2 2 1 0 -0 -0 -1 -1 -1 -1 -1 -2 -2 -2 -2 -2 -2 -2 -2 -2 -2 -2 -2 -3 -3 -4 -4 -3 -4 -4 -4 -4
5 5 5 4 4 4 5 5 4 3 3 2 1 0 -0 -1 -1 -1 -1 -1 -2 -2 -2 -2 -2 -2 -2 -2 -2 -2 -2 -3 -3 -3 -3 -3 -3 -3 -3 -4 -4 -4 -4
5 5 5 4 4 4 4 4 3 3 2 1 1 0 -0 -1 -1 -1 -1 -1 -1 -0 -1 -0 -0 -1 -1 -0 -1 -1 -2 -2 -3 -3 -3 -3 -4 -4 -4 -4 -4 -4 -5
5 4 4 4 5 4 3 3 3 2 2 1 0 -0 -1 -1 -1 -1 -2 -1 -1 -1 -1 -0 -0 0 -0 -0 -1 -1 -2 -2 -4 -4 -4 -4 -4 -4 -4 -4 -4 -5 -5

GFSMW_925_temp_090.txt.gz
Temp
26 23 21 19 18 19 20 20 20 19 18 18 17 18 17 18 18 18 18 19 19 18 18 18 18 18 17 18 17 17 17 17 17 17 18 18 18 18 18 18 18 18 16
25 23 21 20 18 19 19 19 20 21 19 17 18 19 18 18 17 17 18 18 18 18 18 18 18 18 17 17 17 17 17 17 17 18 18 19 21 19 19 18 17 17 16
23 23 21 19 18 18 18 18 19 21 20 19 20 19 19 19 17 17 17 18 18 18 18 18 17 17 17 17 17 17 16 17 16 16 17 17 18 18 18 17 17 16 15
23 24 22 19 19 19 19 19 18 19 20 21 19 17 17 17 17 18 17 17 18 19 19 19 18 17 17 17 16 16 16 16 17 15 15 16 16 16 15 16 15 16 15
22 22 20 20 19 17 17 18 19 17 17 19 21 17 17 17 17 17 17 17 18 18 18 17 17 17 16 17 16 16 16 16 16 17 15 14 13 13 13 14 16 14 14
22 22 21 18 17 18 18 16 17 16 16 16 15 16 16 17 16 16 16 17 17 16 16 16 16 16 16 16 16 15 15 15 15 15 15 15 15 15 13 13 13 14 12
22 22 22 18 16 15 16 16 15 16 16 15 16 16 15 15 15 16 16 16 16 15 15 15 15 16 16 16 16 15 15 15 15 15 14 14 15 14 14 13 14 14 11
21 22 22 20 16 15 15 14 14 14 13 14 15 15 16 16 16 16 15 14 14 14 14 15 15 14 15 15 15 15 15 15 15 14 14 13 13 13 12 12 13 12 12
19 20 20 18 17 15 15 14 14 13 13 12 12 13 13 13 13 13 13 13 13 13 13 13 13 13 14 14 14 15 15 14 14 14 13 13 12 11 11 11 11 12 14
18 18 18 17 15 14 12 12 13 13 11 11 11 11 12 12 12 11 12 12 12 11 11 11 12 12 13 13 13 14 14 13 13 12 12 11 10 9 9 9 9 9 10
16 17 16 15 13 12 11 11 11 11 10 10 10 10 9 10 10 10 11 11 11 11 10 11 12 12 12 12 12 12 12 11 11 10 9 8 8 8 7 7 7 7 7
15 15 14 13 12 12 11 10 10 10 9 8 9 8 8 8 8 8 9 9 9 9 9 10 10 11 11 10 10 10 9 8 8 7 6 7 7 6 6 5 5 5 6
13 14 13 13 13 12 11 10 10 9 8 8 8 8 7 7 7 6 7 8 8 8 8 8 8 9 9 9 8 8 8 7 6 6 5 6 5 5 5 4 4 4 4
13 14 14 13 12 11 11 10 9 8 7 7 7 7 6 6 6 5 5 5 5 5 6 6 6 7 7 6 6 6 5 4 4 5 5 5 4 4 3 3 3 3 4
13 13 14 14 12 11 10 10 9 8 7 7 6 6 5 4 4 4 4 4 4 4 4 4 4 5 5 4 4 4 4 4 4 3 3 3 3 3 2 2 2 2 3
14 14 13 13 12 12 11 10 8 7 6 6 6 5 4 4 3 3 3 3 2 2 3 2 2 2 2 2 3 2 2 1 1 1 1 1 1 1 1 2 2 1 2
14 14 14 13 12 12 11 9 8 7 6 6 5 4 4 3 3 3 2 2 2 2 2 2 1 1 1 1 1 1 1 1 1 1 1 0 0 -0 0 -1 -1 -0 1
15 15 14 13 12 11 10 9 8 7 6 6 5 4 4 3 3 2 2 2 1 1 1 1 1 1 1 1 0 1 1 0 0 -0 -0 -0 -1 -0 -1 -1 -1 -1 -1
16 15 14 13 12 11 9 8 7 6 5 5 4 4 3 3 2 2 1 1 1 1 0 0 0 0 -0 -0 -1 -0 -0 -0 -1 -1 -1 -1 -1 -1 -1 -2 -2 -1 -2
13 13 13 12 11 10 9 8 7 6 6 5 4 4 3 2 2 1 1 1 0 0 0 -0 0 -0 -1 -1 0 -0 -1 -1 -1 -2 -2 -2 -1 -2 -2 -1 -1 -1 -2
9 9 10 10 10 8 7 7 7 6 5 4 3 2 2 2 1 1 0 0 0 -0 -0 -1 -1 -1 -0 -1 -0 -0 -1 -1 -1 -1 -2 -2 -2 -2 -3 -2 -2 -1 -2
8 7 8 7 6 6 6 6 5 5 5 3 3 2 1 1 1 1 0 -0 -0 -1 -1 -1 -1 -1 -1 -1 -1 -1 -1 -1 -1 -2 -2 -2 -3 -3 -3 -3 -3 -3 -3
8 7 7 7 6 5 5 5 5 5 4 3 2 1 1 1 0 -0 -1 -1 -1 -1 -1 -0 -0 -1 -2 -1 -2 -2 -2 -1 -2 -2 -2 -2 -3 -3 -3 -3 -3 -3 -3
8 7 7 7 6 5 5 6 5 4 3 3 2 1 1 0 -0 -0 -1 -1 -2 -2 -1 -0 -0 -1 -2 -2 -2 -1 -2 -3 -2 -2 -3 -3 -3 -3 -3 -3 -3 -4 -3
6 6 7 7 7 5 4 5 4 3 3 3 2 0 0 -0 -1 -1 -1 -1 -1 -1 -1 -0 -0 -1 -1 -1 -1 -2 -2 -2 -3 -3 -4 -3 -3 -3 -3 -3 -4 -4 -4
6 6 5 5 6 5 4 4 4 3 3 2 1 0 0 -0 -1 -1 -1 -1 -1 -1 -1 -1 -0 -0 0 0 0 -1 -1 -2 -2 -4 -3 -2 -2 -3 -2 -3 -3 -4 -4

GFSMW_925_temp_093.txt.gz
Temp
26 26 23 22 22 21 22 22 20 20 19 18 18 18 19 19 20 20 20 20 20 20 19 19 20 19 19 19 19 19 18 18 18 18 18 19 19 19 19 19 19 19 18
26 26 24 22 22 21 21 21 21 20 19 18 18 18 18 18 18 19 18 19 19 19 19 19 19 19 19 19 19 19 18 18 18 18 19 19 20 20 19 19 19 18 17
25 26 24 22 21 21 20 20 21 22 20 18 19 18 18 18 17 17 18 19 19 18 18 18 19 19 19 18 18 18 17 18 18 18 18 17 18 19 19 18 18 17 16
25 26 24 22 21 20 18 20 20 19 19 19 18 17 18 20 20 20 20 19 19 19 17 16 17 18 18 17 17 17 17 17 17 17 16 17 17 17 17 17 17 16 15
24 25 24 21 20 19 18 19 20 19 18 19 19 18 20 20 20 20 18 18 18 20 20 19 16 16 17 17 17 17 17 16 17 17 16 16 16 14 15 15 16 15 13
24 25 22 21 20 19 17 17 18 18 18 17 19 19 19 20 19 18 19 20 20 17 17 16 18 16 16 16 16 16 16 16 17 17 17 16 15 14 14 14 14 15 13
24 24 24 21 20 18 17 16 17 17 17 17 18 17 18 19 18 18 17 19 19 18 17 17 16 16 16 16 16 16 16 16 16 16 16 16 15 16 15 15 15 14 13
24 23 24 22 20 18 16 16 15 15 15 16 16 17 17 16 16 17 16 16 16 16 15 15 14 14 15 15 15 15 15 15 15 15 15 15 15 15 14 14 14 12 13
23 23 23 23 22 16 16 17 16 15 15 15 14 14 14 14 14 14 15 15 14 14 13 13 13 13 13 13 14 14 15 14 15 14 14 14 13 13 13 12 12 12 12
21 21 22 22 21 18 16 15 16 15 14 14 14 13 13 13 12 12 12 12 12 12 11 12 12 12 12 13 13 13 14 14 14 13 13 12 12 11 11 11 10 10 10
20 20 20 20 19 17 15 15 15 13 12 12 12 12 11 11 11 11 10 10 10 10 10 10 10 10 10 11 12 12 12 12 12 11 11 10 9 10 9 9 9 9 9
19 19 19 18 16 15 14 14 13 12 12 11 11 11 10 10 10 9 9 9 9 9 9 9 9 10 10 10 10 11 11 10 10 9 9 9 8 8 8 7 7 7 6
17 17 17 16 15 15 14 13 13 12 11 10 10 10 10 10 10 9 8 8 8 8 8 8 8 8 8 8 9 9 8 8 8 8 7 7 6 6 6 5 5 5 6
16 16 16 16 15 15 14 13 12 11 10 10 10 9 9 8 8 7 7 7 7 7 6 6 6 6 6 7 7 7 7 6 6 6 5 5 5 5 4 4 4 4 5
16 16 16 16 15 14 13 13 12 11 10 9 9 8 7 6 6 6 6 6 5 5 5 5 5 4 4 5 5 5 5 5 4 4 4 4 4 4 3 3 3 4 4
16 16 16 16 15 14 13 12 11 10 9 9 9 7 6 6 5 5 5 4 4 4 4 4 4 3 3 3 3 4 4 3 3 2 2 2 3 3 3 3 3 3 3
16 16 16 16 15 14 13 12 11 10 9 9 8 7 6 6 5 5 4 4 4 3 3 2 2 2 2 2 2 2 2 2 1 1 1 1 1 1 1 0 1 2 2
17 17 16 15 15 14 13 12 11 10 9 8 8 7 6 6 5 4 3 2 2 2 2 2 2 2 1 1 1 1 1 1 0 0 0 1 0 0 0 0 0 0 0
18 17 16 16 15 14 13 12 10 9 8 8 7 6 6 6 5 3 2 2 2 2 1 1 1 1 1 1 0 1 0 0 -0 -0 0 0 -0 0 -1 -0 -0 -1 -1
16 17 16 15 15 14 12 11 10 9 8 8 7 6 5 5 4 3 1 2 1 1 1 1 0 0 0 -0 -1 -0 -0 -0 -1 -1 -1 -0 -0 -0 -1 -1 -1 -1 -1
11 11 14 14 14 13 11 10 10 9 8 7 6 5 4 3 3 2 2 2 1 0 0 0 0 0 0 -1 -1 -1 -0 0 -0 -1 -1 -1 -2 -2 -1 -1 -1 -0 -1
10 10 11 10 9 9 9 9 8 7 6 5 4 4 3 2 1 1 1 1 0 -0 -1 -1 -0 0 0 0 -1 -0 -1 -0 -1 -1 -1 -1 -2 -2 -2 -2 -2 -1 -2
10 9 10 9 8 7 8 8 7 5 5 4 4 3 2 2 1 0 0 -0 -0 -1 -1 -1 -0 0 -0 -0 -1 -1 -1 -1 -1 -1 -1 -2 -2 -3 -3 -3 -3 -3 -3
10 9 9 9 8 7 7 8 7 5 5 5 4 3 2 1 0 1 0 -0 -1 -1 -1 -1 0 1 -1 -1 -1 -1 -2 -2 -2 -2 -2 -2 -2 -3 -3 -3 -3 -3 -3
8 8 9 9 9 7 7 6 5 5 5 5 5 3 2 1 -0 0 0 -0 -0 -0 -1 -1 -0 0 -0 -1 -1 -1 -1 -2 -2 -2 -3 -3 -3 -3 -3 -3 -2 -3 -3
8 8 7 6 7 6 5 5 5 4 4 4 4 2 1 1 -0 -0 -0 -1 -1 -1 -1 -1 -1 0 -0 -0 -1 -1 -1 -1 -2 -3 -3 -3 -2 -2 -2 -2 -3 -3 -3

GFSMW_925_temp_096.txt.gz
Temp
24 24 23 22 22 22 22 21 20 20 20 20 19 19 20 20 20 21 21 21 20 20 19 19 19 19 19 19 19 19 19 18 18 18 18 18 19 19 19 19 19 19 19
22 23 23 22 22 21 22 21 21 20 20 19 19 19 19 20 20 20 20 20 20 20 20 19 19 20 19 19 19 19 18 18 18 18 17 16 18 19 19 19 19 18 18
22 22 21 22 22 21 21 21 21 20 20 19 19 18 18 19 19 19 20 20 20 20 19 19 19 19 19 19 19 19 18 18 18 18 18 15 15 18 19 19 18 18 17
22 22 21 21 21 21 21 21 21 21 20 19 20 20 19 19 19 19 19 19 19 19 20 20 20 19 19 19 18 18 18 17 17 17 18 18 17 15 15 17 17 17 16
21 21 19 20 20 19 19 20 21 20 19 19 19 19 19 19 19 19 19 19 19 19 19 20 20 20 19 18 18 18 18 17 17 17 17 16 16 16 14 14 14 14 14
20 21 21 20 19 19 18 18 18 19 19 19 19 18 18 17 18 18 19 18 18 18 18 19 19 19 19 19 19 18 18 19 17 16 17 17 16 14 14 13 14 14 12
19 19 18 18 18 18 17 17 17 17 18 18 18 19 19 19 19 18 18 18 18 18 17 17 18 19 20 17 17 17 16 16 16 16 17 17 16 16 15 14 14 13 12
19 19 18 18 18 18 17 18 17 17 16 16 17 17 17 17 17 18 18 17 17 17 18 18 17 16 15 15 16 15 15 15 16 16 16 15 15 15 15 15 14 12 11
19 19 19 18 18 17 17 16 16 17 16 16 16 16 15 15 16 16 16 16 15 15 15 15 15 15 15 15 14 14 15 16 15 15 15 15 14 14 14 14 14 13 11
20 19 18 20 18 17 16 16 15 15 15 15 14 14 13 14 13 14 14 14 14 14 14 13 13 13 13 13 13 12 13 14 14 14 14 14 14 13 13 12 12 12 11
18 17 18 20 18 16 16 16 15 14 14 14 15 14 13 12 13 13 12 12 12 11 11 11 11 11 11 11 11 11 12 12 13 13 12 12 12 11 11 10 10 10 10
16 17 16 16 16 15 15 15 13 13 13 13 13 14 14 13 12 11 11 11 11 11 11 11 10 10 10 10 10 11 11 11 11 11 10 10 9 9 9 9 9 8 9
16 15 13 14 14 14 14 13 12 12 12 12 12 12 11 10 10 10 10 10 10 9 9 9 9 9 9 9 9 9 9 9 9 9 9 9 8 8 8 8 7 6 6
14 14 13 12 14 14 13 13 12 11 11 11 11 10 10 9 9 9 9 8 8 8 8 8 8 7 7 8 8 8 8 8 8 7 7 7 7 7 6 6 6 5 5
14 13 12 11 13 14 13 12 11 10 10 10 10 9 9 9 8 8 8 7 7 7 7 6 6 6 6 6 6 6 6 7 6 6 6 5 5 5 5 5 5 5 5
14 14 13 12 13 13 13 12 11 10 10 9 9 8 8 8 7 7 7 7 6 6 5 5 4 4 4 4 3 4 5 5 5 4 4 4 4 3 3 3 4 4 4
14 13 13 13 14 13 13 12 11 10 9 9 8 8 7 7 6 6 5 5 5 4 4 4 4 3 3 3 3 3 3 4 3 3 3 2 2 2 2 2 3 3 3
14 13 13 14 14 14 13 12 10 10 9 9 8 7 7 6 5 5 4 4 3 2 2 3 3 3 2 2 2 2 2 2 2 1 1 1 1 1 1 1 2 2 2
14 15 15 15 15 14 13 12 10 9 9 8 8 7 7 6 5 5 4 2 2 3 3 2 2 1 1 1 1 1 1 1 0 0 1 1 1 0 0 1 0 0 -0
12 13 16 15 14 13 13 12 10 9 8 8 8 7 6 6 5 4 2 2 2 2 2 1 1 1 1 1 0 -0 0 -0 -0 -0 0 -0 0 0 -1 0 -0 -1 -1
10 12 13 14 14 13 12 11 10 9 9 8 7 7 6 5 5 4 2 2 1 1 1 1 0 0 1 0 -0 -0 -0 0 -0 -0 -0 -0 -1 -1 -1 -1 -1 -0 -1
9 10 10 10 10 11 11 10 10 9 8 8 7 6 5 4 3 2 1 1 1 1 0 0 -0 0 0 0 -1 -1 -0 0 -0 -0 -1 -1 -1 -2 -2 -1 -1 -1 -1
9 9 9 8 8 8 9 8 8 8 7 6 5 5 4 3 2 1 1 1 1 0 -0 -0 -0 -0 0 0 -0 -1 -1 -1 -1 -1 -1 -1 -2 -2 -2 -2 -2 -2 -2
8 9 9 8 7 7 8 8 7 7 6 5 4 4 3 2 1 1 0 0 0 -0 -1 -1 -1 -0 -0 -0 -0 -1 -1 -1 -1 -1 -1 -2 -2 -2 -2 -2 -2 -2 -2
8 8 8 8 8 7 7 7 6 6 5 5 5 4 3 2 1 0 -0 -0 0 0 -0 -0 -1 -1 -0 -0 -0 -0 -1 -1 -1 -2 -2 -3 -3 -3 -2 -2 -2 -3 -3
7 7 7 7 7 7 6 6 5 5 5 5 5 4 3 2 1 0 0 -0 -0 -0 -1 -1 -1 -1 -1 0 -0 -1 -1 -1 -2 -2 -3 -3 -3 -2 -2 -3 -2 -3 -3

GFSMW_925_temp_099.txt.gz
Temp
19 22 22 22 21 20 20 21 21 21 20 20 20 20 20 21 21 21 21 21 20 20 19 19 19 19 19 19 19 18 18 18 18 18 18 18 18 19 19 18 18 18 19
18 19 21 21 21 21 21 21 21 20 20 20 20 20 20 20 20 20 20 20 20 20 20 19 19 19 19 19 19 18 18 18 18 18 17 15 17 19 19 18 18 18 18
19 18 18 20 21 21 20 21 21 21 21 20 20 19 19 19 19 19 19 20 20 19 19 19 19 19 19 19 19 19 18 18 18 18 18 14 15 16 17 17 17 17 17
19 18 18 19 20 21 21 21 21 21 21 21 20 20 19 19 20 19 19 18 18 19 18 18 18 18 18 18 18 19 18 18 17 17 17 17 17 15 16 16 15 15 15
18 17 17 19 20 21 21 20 21 20 20 20 20 20 19 19 19 18 18 18 18 18 19 19 18 18 18 18 18 18 18 18 17 16 16 16 16 16 15 14 13 14 13
18 17 19 19 19 18 19 19 19 20 20 19 19 19 19 18 18 17 17 17 18 18 18 18 18 18 18 18 18 18 18 18 17 17 17 18 16 14 14 13 13 13 11
18 16 15 15 17 18 18 18 17 17 18 18 18 19 18 18 18 18 18 18 17 17 16 16 16 17 17 17 17 17 18 19 19 18 17 18 16 16 15 15 14 12 10
16 15 15 15 17 18 18 18 17 17 17 17 18 18 18 18 18 18 18 18 18 17 16 16 15 15 15 16 16 16 16 18 18 17 17 17 16 16 15 15 14 12 10
16 15 15 16 16 17 18 18 18 17 17 17 17 17 17 18 18 17 17 17 17 16 15 15 14 15 15 15 14 14 14 14 15 15 16 15 15 15 15 14 15 14 11
16 15 16 16 17 17 17 17 17 17 17 17 17 17 16 16 16 15 15 15 14 14 15 15 15 15 14 14 13 13 13 13 13 14 14 14 14 14 14 13 14 13 12
16 15 14 15 16 16 16 16 16 16 15 15 15 15 15 15 15 15 15 14 14 13 13 13 13 13 12 12 13 12 12 11 12 12 13 13 13 12 12 12 12 12 12
14 14 12 13 15 15 15 15 15 15 14 14 14 14 14 14 14 14 14 14 12 12 11 11 11 11 11 11 11 11 11 11 11 11 11 12 12 11 11 10 10 10 10
14 11 11 11 12 13 13 14 14 13 13 13 13 12 11 11 11 12 10 10 10 10 10 10 10 10 9 9 9 9 10 10 10 10 10 10 10 9 9 9 9 9 8
13 12 10 10 12 12 12 12 12 12 12 12 12 11 10 10 10 10 10 10 9 9 9 9 9 8 8 8 8 8 8 9 9 8 8 8 9 8 8 8 7 7 6
13 12 11 9 11 12 12 11 11 11 11 11 10 10 9 9 10 10 9 8 8 8 8 8 7 7 7 7 7 7 7 7 7 7 7 7 7 6 6 6 6 6 5
13 12 11 10 10 11 11 11 11 10 10 10 9 9 9 9 9 9 8 7 7 7 6 6 6 6 6 5 5 5 5 5 6 6 5 5 5 5 4 4 4 5 5
12 12 11 10 11 12 12 11 11 10 10 9 9 9 9 8 8 7 7 6 6 6 5 5 5 5 4 3 3 3 4 4 4 4 4 4 3 4 3 3 3 4 4
13 12 11 12 13 13 12 11 10 10 9 9 9 8 8 7 7 6 6 6 5 5 4 5 4 4 3 3 3 3 3 3 3 3 3 2 2 2 2 2 3 3 3
11 12 14 13 13 13 12 11 10 10 9 8 8 8 7 7 6 6 5 4 4 3 3 3 3 3 3 2 2 2 1 2 2 1 1 1 1 1 1 2 2 1 1
9 10 14 14 14 13 12 11 10 9 9 8 8 8 7 7 6 6 5 2 2 2 2 2 2 2 2 1 1 1 0 0 0 0 0 0 1 0 0 1 1 0 -0
9 10 12 12 13 12 12 10 10 9 9 9 8 7 7 6 6 5 4 2 2 1 2 2 1 1 1 1 1 0 0 -0 -0 -0 0 -0 -0 -0 -0 -0 0 0 -0
8 9 9 9 10 11 11 10 9 9 9 8 7 7 6 6 5 4 2 1 0 1 1 1 1 1 0 0 0 -0 -0 0 0 -0 -0 -0 -1 -1 -1 -1 -0 -0 -0
8 8 8 8 8 9 10 9 9 9 8 7 7 6 5 5 4 3 2 1 0 0 1 0 0 0 0 0 -1 -0 -0 -0 -0 -0 -0 -0 -1 -1 -2 -1 -1 -1 -1
7 8 8 7 7 7 8 8 8 7 7 6 6 5 5 4 3 2 1 0 0 0 0 -0 -0 -0 -0 -0 -1 -1 -0 -0 -1 -1 -1 -1 -1 -2 -2 -2 -2 -2 -2
7 7 6 6 6 7 7 7 7 6 6 5 5 4 4 3 3 2 1 0 0 0 0 0 0 -0 -0 -0 -1 -1 -0 -1 -1 -1 -1 -2 -2 -2 -2 -2 -2 -2 -2
6 6 6 6 6 6 6 6 6 5 5 5 5 4 4 3 3 2 1 1 0 0 0 -0 -0 0 -0 -1 -1 -1 -0 -1 -1 -2 -2 -2 -2 -2 -2 -2 -2 -2 -3

GFSMW_925_temp_102.txt.gz
Temp
18 20 20 20 21 22 21 21 21 21 20 20 20 21 21 20 20 20 20 21 21 20 20 20 20 19 19 19 19 19 18 18 18 18 18 18 18 18 18 18 18 18 18
17 17 19 20 20 21 21 21 21 21 20 20 20 20 21 21 21 20 20 20 20 20 20 20 19 19 19 19 19 19 18 18 18 17 16 14 17 18 18 18 18 18 17
18 16 16 18 19 20 20 20 21 21 21 21 18 20 20 20 20 20 20 20 20 19 19 19 19 19 19 19 19 18 17 18 17 17 17 14 14 15 16 16 16 16 15
17 17 16 17 19 20 21 21 21 21 20 20 20 21 20 18 20 20 19 19 19 19 19 19 18 18 18 17 17 17 17 16 16 15 16 16 16 15 15 15 14 14 14
16 16 17 18 19 20 21 21 20 20 20 20 20 20 19 19 19 19 19 18 17 18 17 17 17 17 17 17 17 17 17 17 17 16 16 16 16 15 14 14 12 13 13
16 15 17 18 18 19 20 20 20 20 19 19 21 20 19 18 18 16 17 17 17 17 17 17 17 17 16 16 17 17 17 17 17 17 17 16 15 14 14 13 13 13 11
16 15 14 15 16 17 18 18 19 19 20 20 20 19 19 18 18 17 17 17 16 17 17 17 17 18 18 17 16 15 16 16 17 17 16 16 17 17 16 15 13 12 10
15 15 14 15 16 16 17 18 19 19 19 20 19 18 18 18 18 18 18 18 18 17 17 16 16 16 15 15 15 15 16 16 16 16 17 15 18 17 16 16 14 12 10
15 14 13 16 16 16 16 17 18 17 17 17 18 18 18 18 18 17 17 17 17 16 16 16 15 15 15 15 14 14 15 14 15 14 15 15 15 15 15 15 15 14 11
14 12 13 15 17 18 17 17 17 17 17 17 18 18 18 17 17 17 17 16 16 15 15 14 14 15 15 14 14 14 14 14 14 14 13 13 14 14 14 14 14 14 13
14 12 12 15 15 17 17 16 16 16 15 16 16 16 16 16 16 16 16 16 15 15 14 14 14 14 13 12 12 12 12 12 12 12 11 12 13 13 13 13 12 12 12
13 12 12 13 13 14 15 15 15 15 15 15 15 14 15 14 14 14 14 13 14 14 13 12 12 12 11 11 11 11 11 11 11 10 11 11 11 11 11 11 11 11 11
11 10 10 11 12 13 13 14 14 14 14 14 13 13 13 12 12 12 12 11 12 12 12 12 11 11 11 11 10 10 10 10 10 9 10 11 10 10 10 10 9 9 9
11 10 9 9 11 12 13 12 12 13 13 12 12 12 12 12 12 11 10 10 10 11 11 10 10 9 9 9 9 9 9 9 9 9 9 9 9 8 8 8 8 8 8
11 10 10 9 10 11 11 12 12 12 12 12 12 12 11 11 10 10 10 9 9 9 9 9 9 8 8 8 8 8 7 7 7 8 8 7 8 7 7 7 7 7 6
13 11 10 9 9 10 11 11 11 11 11 11 11 10 10 10 9 9 8 8 8 8 8 7 7 7 6 6 6 5 5 6 6 6 6 6 6 5 5 5 5 5 6
12 11 10 10 10 10 11 10 11 10 10 10 9 9 9 9 8 8 7 7 7 7 7 7 6 6 5 4 3 3 3 4 4 5 5 4 4 4 4 4 4 4 4
12 11 11 11 11 11 11 11 10 10 9 9 9 8 8 8 7 7 7 7 7 6 6 5 5 4 4 4 3 3 3 3 3 3 3 3 3 3 2 3 3 3 3
9 10 12 12 12 12 12 11 10 9 9 9 8 8 8 7 7 7 7 6 6 5 4 4 4 3 3 3 2 2 2 2 2 2 2 2 2 2 1 2 2 2 2
8 9 12 13 12 12 11 11 10 9 9 9 9 8 8 7 7 7 6 5 5 3 2 2 3 2 2 2 2 2 1 1 1 1 1 1 1 1 0 1 1 1 0
8 8 10 11 12 12 11 10 10 9 10 9 9 8 7 7 7 6 5 5 3 2 1 2 2 2 2 2 1 1 1 0 0 0 0 0 0 0 0 0 1 1 0
7 8 7 8 10 10 10 10 9 10 9 9 8 8 7 7 6 6 5 3 2 1 1 1 2 2 1 1 1 1 0 -0 -0 0 0 0 -0 -0 -0 -1 -0 -0 -0
6 7 7 7 8 9 9 9 9 9 9 8 8 7 6 6 5 5 4 2 1 0 1 1 1 1 1 1 0 0 0 -0 -1 0 0 0 -0 -1 -1 -1 -1 -1 -1
6 7 7 6 6 7 8 8 8 8 7 7 6 6 5 5 4 3 3 2 1 0 0 0 0 1 1 0 0 -0 -0 -0 -0 -0 -0 -0 -1 -1 -1 -2 -1 -1 -1
6 6 6 6 6 6 7 7 6 6 6 6 5 5 4 4 4 3 3 2 2 1 1 1 1 0 0 1 0 -0 -1 -1 -0 -1 -1 -1 -1 -2 -2 -2 -2 -2 -2
5 5 5 5 5 5 5 5 5 5 5 5 5 5 4 4 3 3 3 2 2 1 1 0 -0 0 0 -1 -1 -1 -1 -1 -1 -2 -2 -2 -2 -2 -2 -3 -2 -2 -2

GFSMW_925_temp_108.txt.gz
Temp
14 15 17 18 19 20 18 18 18 18 17 17 17 17 17 18 18 18 19 19 19 19 19 19 19 18 18 19 18 18 17 17 17 17 17 18 18 17 17 17 17 17 17
14 14 16 17 20 21 18 18 18 18 17 17 17 17 17 18 19 19 19 19 20 19 19 19 19 19 19 18 18 18 17 17 17 16 16 15 16 16 16 17 17 17 17
14 14 14 16 18 19 19 18 17 18 17 17 17 17 17 17 18 19 19 18 19 19 20 19 19 19 19 18 18 17 17 17 16 16 15 14 15 14 15 15 15 15 16
13 14 15 14 16 18 19 19 17 17 18 18 19 18 17 17 17 18 19 19 18 18 20 19 18 18 17 16 16 16 16 16 15 15 15 15 14 14 14 14 14 15 15
13 14 15 16 16 16 17 18 17 17 17 18 18 19 16 18 18 18 18 18 18 18 18 17 17 16 16 16 17 17 17 17 16 15 15 14 14 14 14 14 13 13 14
14 15 15 16 16 16 19 18 18 17 17 17 17 17 17 19 18 17 19 18 18 18 17 17 17 16 16 16 15 16 16 15 15 15 14 14 14 14 13 13 13 13 14
14 15 14 14 15 17 15 16 16 16 17 19 17 18 20 20 19 20 20 19 16 16 16 16 16 16 16 16 16 16 15 15 14 15 15 14 14 14 14 14 13 12 12
15 15 15 14 14 17 17 17 16 17 21 20 20 20 20 20 19 19 20 18 16 16 15 16 16 16 16 16 15 15 14 14 14 14 14 14 14 14 14 13 13 12 11
15 15 15 15 14 16 17 20 18 17 19 20 19 19 18 18 18 17 17 16 16 16 16 16 16 15 15 15 14 14 14 14 13 13 13 13 13 13 13 12 13 12 13
15 15 14 14 14 15 17 17 17 17 17 17 17 17 17 16 17 17 16 16 16 16 16 15 15 15 14 14 14 13 13 13 13 12 12 12 12 11 11 12 12 12 12
14 14 14 14 14 14 15 16 17 17 17 16 16 16 16 16 16 16 15 16 15 15 15 15 14 14 13 13 13 13 12 12 12 11 11 9 10 10 10 11 11 12 11
11 10 12 13 13 13 14 15 15 15 15 15 15 15 15 15 15 15 15 15 15 14 14 13 13 13 12 12 11 11 11 11 10 10 9 8 9 9 10 10 10 10 10
10 9 9 10 11 12 12 13 14 14 14 13 14 14 14 14 14 14 14 13 13 13 12 12 12 11 11 10 10 10 10 9 9 9 9 8 8 9 9 9 9 9 9
10 9 9 8 9 11 12 12 12 12 13 12 13 13 12 12 13 12 12 12 12 12 11 11 11 10 10 9 9 9 9 9 8 8 8 7 7 7 7 7 8 8 7
10 9 8 7 8 9 10 11 11 11 11 12 12 11 11 11 11 11 11 10 10 10 10 10 9 9 9 8 8 8 8 8 7 7 6 6 6 6 6 6 6 6 6
10 10 9 8 8 9 9 10 10 11 11 11 11 11 10 10 10 9 9 9 10 9 9 9 8 8 7 6 6 7 6 6 5 5 5 4 5 5 5 5 5 5 5
8 9 9 9 9 9 10 9 9 10 10 10 10 9 9 9 9 9 9 9 8 8 8 7 7 7 6 5 5 4 4 4 4 4 3 4 4 4 4 4 4 4 4
7 7 7 9 10 10 10 10 10 10 9 9 9 9 9 9 8 8 8 7 7 7 7 6 6 6 5 4 3 2 3 3 3 3 3 2 3 3 3 3 3 3 3
6 7 8 9 10 10 10 10 9 9 9 8 8 8 8 8 7 7 7 7 6 6 6 5 6 5 4 4 3 3 3 3 2 2 2 2 2 2 2 2 1 1 2
6 6 8 9 10 10 10 10 9 8 8 8 8 8 8 7 7 7 6 6 6 5 5 5 4 4 4 3 3 3 3 2 2 2 2 1 1 1 1 1 1 1 1
6 6 7 8 9 9 9 9 8 8 9 8 8 8 8 8 7 7 6 6 5 5 4 4 4 4 4 3 3 3 2 2 2 1 1 1 1 0 0 0 0 0 0
5 6 6 6 7 8 9 8 8 8 8 8 8 7 7 6 7 6 6 5 5 4 4 3 3 3 3 3 3 2 2 1 1 1 1 0 0 0 -0 -0 -0 -0 -1
5 5 5 6 6 7 8 8 7 8 8 8 7 7 7 6 6 6 5 4 4 4 3 2 2 2 2 2 2 2 2 1 1 1 1 0 0 -0 -0 -0 -0 -1 -1
4 5 5 4 4 5 6 6 6 7 7 7 6 6 6 6 5 5 5 4 4 3 3 2 2 2 2 2 2 2 2 1 1 1 -0 -0 -0 -1 -1 -1 -1 -1 -1
4 4 4 4 3 4 5 5 5 5 6 5 5 5 5 5 5 4 4 4 4 4 3 3 2 2 2 2 1 1 1 1 1 -0 -0 -1 -1 -1 -1 -1 -1 -1 -1
3 3 3 3 3 3 3 4 4 5 5 5 4 4 4 4 4 4 4 4 4 3 3 3 2 2 1 1 1 0 0 0 -0 -1 -1 -1 -1 -1 -1 -2 -2 -2 -2

GFSMW_925_temp_111.txt.gz
Temp
14 14 19 19 18 18 18 18 18 17 17 17 16 16 16 17 18 18 18 18 18 18 17 18 17 17 17 17 17 17 17 17 17 17 17 17 17 17 16 17 17 17 17
14 15 17 18 17 19 18 18 17 17 17 17 16 16 16 16 18 18 18 18 18 18 18 18 18 18 17 17 17 17 17 17 17 16 16 17 16 16 16 16 16 16 16
14 14 16 18 17 17 18 18 18 17 17 17 16 16 16 16 16 17 18 18 18 18 18 18 18 18 17 17 17 17 16 17 17 16 16 15 15 14 15 15 15 15 15
14 14 14 16 16 17 17 18 17 17 17 16 16 16 16 17 17 17 18 18 18 18 18 17 17 17 16 16 16 17 16 17 16 15 16 16 15 15 15 13 14 14 14
15 15 14 15 15 16 16 16 16 17 16 16 17 16 16 16 18 17 17 17 17 18 17 17 16 16 17 17 15 16 15 16 16 15 15 14 14 14 14 14 13 13 14
14 15 15 15 15 16 16 16 15 16 16 15 16 16 16 17 17 18 18 17 17 17 16 16 16 16 17 15 15 15 15 15 15 15 14 14 14 13 13 13 13 13 14
14 15 14 14 14 15 16 17 16 16 17 16 16 15 15 15 17 18 16 17 16 15 16 16 15 15 16 16 15 15 15 15 14 14 14 14 14 14 14 14 13 13 14
15 15 15 14 14 14 15 16 16 16 16 16 16 15 15 16 15 16 17 17 16 15 17 15 15 15 15 15 15 14 14 14 14 14 14 14 13 13 13 13 13 14 13
15 16 15 14 14 15 15 16 17 15 16 17 16 16 16 15 16 17 15 15 15 15 15 15 15 14 14 15 14 14 14 14 14 13 12 12 12 12 12 12 12 12 13
14 15 15 14 13 14 15 15 15 15 15 15 15 15 15 15 15 15 15 15 16 15 15 14 14 14 15 14 14 13 13 13 13 13 12 12 11 11 11 11 10 11 11
13 14 14 13 13 13 14 14 14 15 15 15 15 15 15 15 15 15 15 15 15 15 15 14 14 14 13 13 13 13 12 12 11 11 10 9 8 9 9 10 10 10 10
11 11 12 12 12 12 12 13 13 15 15 15 15 15 15 15 15 15 15 15 15 14 14 13 13 13 13 13 13 12 12 11 11 10 9 8 8 8 9 9 9 10 9
10 10 10 11 11 11 12 12 12 13 13 14 14 13 13 14 14 13 13 13 13 13 13 13 13 12 12 12 12 11 10 10 10 9 9 9 8 8 7 7 7 8 8
10 9 9 9 9 10 10 11 11 12 12 13 12 13 13 13 13 12 12 13 13 13 12 12 12 11 10 10 10 10 9 9 9 9 8 8 7 7 7 7 7 7 7
10 9 9 8 8 9 9 10 10 11 12 12 11 12 11 12 12 12 11 11 11 11 10 10 10 10 10 9 10 9 9 8 8 7 6 6 6 6 5 5 5 5 6
9 9 9 8 8 8 9 10 10 10 11 11 11 11 10 10 10 10 10 10 10 10 10 9 8 8 7 8 8 8 7 7 6 6 6 5 5 5 5 5 5 4 4
8 8 8 8 8 8 9 9 9 9 10 10 9 9 9 9 9 9 9 9 8 8 8 7 7 7 7 7 7 7 6 6 5 5 4 4 4 4 4 4 4 4 4
7 7 7 7 9 9 9 9 9 9 9 9 9 9 9 9 8 8 8 7 7 7 7 7 7 7 6 6 5 6 4 4 3 3 3 3 3 3 3 3 2 3 3
6 6 6 7 8 9 9 9 8 8 8 8 8 8 8 8 8 7 7 7 7 7 7 7 6 6 6 4 3 3 3 3 3 3 2 2 3 2 2 2 2 2 2
5 5 6 8 9 9 8 8 8 8 7 8 8 7 7 8 7 7 6 6 6 6 5 5 5 6 5 4 4 3 3 3 3 3 2 2 2 1 1 1 1 1 1
5 6 6 6 7 8 8 8 7 8 8 8 7 7 7 7 7 7 6 6 6 5 5 4 4 5 4 4 3 3 3 3 3 2 2 2 2 1 1 1 1 0 0
5 5 5 5 6 7 8 8 8 8 8 8 8 7 7 7 7 6 6 5 5 4 4 4 3 3 3 3 3 3 3 2 2 2 2 1 1 1 0 -0 -0 -0 -0
4 5 5 5 5 6 7 7 6 7 7 7 7 7 6 6 6 5 5 4 4 4 3 2 3 4 3 3 3 3 2 2 2 2 1 1 0 0 0 -0 -0 -1 -1
4 4 5 4 3 4 5 5 6 6 6 6 6 6 6 6 5 5 5 4 4 3 3 3 3 3 3 3 3 2 2 2 2 1 1 0 0 -0 -0 -0 -1 -1 -1
4 4 3 3 3 3 3 4 4 5 5 5 4 4 4 4 4 4 4 4 4 4 4 4 3 3 2 3 2 2 2 1 1 0 -0 -0 -1 -1 -1 -1 -1 -1 -1
3 3 3 3 2 2 2 3 3 3 4 4 3 4 4 3 3 4 3 4 4 3 3 3 3 3 2 2 2 1 1 1 1 -0 -1 -1 -1 -1 -1 -1 -1 -1 -2

GFSMW_925_temp_114.txt.gz
Temp
16 16 14 16 15 17 18 18 18 17 17 17 16 16 17 18 18 18 18 17 17 17 17 17 17 17 17 17 17 17 17 17 17 18 19 18 17 17 16 16 16 17 16
16 16 15 15 14 17 18 18 18 17 17 17 17 17 17 17 18 17 17 17 17 17 17 17 17 17 17 17 17 17 16 18 18 19 18 20 19 16 16 16 15 14 15
16 15 16 16 16 16 18 18 17 17 17 17 16 16 16 16 16 16 16 16 16 17 16 16 16 16 16 16 16 17 17 18 16 16 18 19 20 18 15 15 15 15 15
16 15 16 17 16 16 17 18 17 17 17 17 17 16 16 17 17 17 16 18 17 17 17 17 17 16 16 16 16 16 17 17 15 15 16 16 16 18 18 15 14 15 14
14 15 17 17 17 16 16 17 17 17 17 17 16 16 17 17 17 17 16 16 16 17 17 17 15 16 17 18 18 17 17 17 15 16 15 15 15 14 15 14 14 14 15
13 15 17 16 15 15 16 15 16 16 16 16 16 16 16 16 16 16 16 16 16 16 16 16 16 16 16 16 16 16 16 16 15 15 15 15 15 14 14 14 14 14 14
14 16 16 15 16 15 15 15 16 16 16 15 16 15 15 15 16 16 18 15 15 15 16 16 16 15 15 15 15 14 14 15 15 15 15 15 15 15 15 15 15 15 14
14 16 18 16 15 16 16 15 15 15 15 15 15 15 15 15 15 15 16 15 15 16 16 16 16 15 15 14 15 15 14 14 14 14 14 15 14 13 13 13 14 15 16
12 15 17 16 15 15 15 15 15 15 14 14 15 14 16 14 14 15 15 15 15 15 15 16 15 15 15 14 14 14 13 14 13 13 13 12 12 12 12 12 12 13 14
15 17 17 16 15 15 15 16 15 15 16 15 15 15 14 14 15 15 15 15 15 16 15 15 15 14 14 14 13 13 13 12 12 12 12 11 12 10 10 10 11 10 11
12 16 16 15 14 14 14 14 14 14 15 15 14 14 14 14 14 14 14 15 15 14 14 14 14 14 14 14 14 14 13 12 12 11 11 10 10 10 10 10 10 10 10
11 14 15 15 14 14 13 13 13 13 13 14 14 14 13 14 14 13 14 14 14 14 14 14 14 13 13 13 12 12 12 11 11 10 10 10 9 9 9 9 9 9 9
11 13 13 15 14 13 12 12 12 12 12 12 13 13 13 13 13 12 13 13 13 13 13 13 13 13 13 11 10 11 10 9 9 9 9 9 8 8 8 7 7 8 8
11 11 12 12 12 12 11 11 10 10 11 11 11 11 12 12 12 12 12 12 13 13 13 12 12 11 11 10 10 10 9 9 9 10 9 9 8 7 7 7 7 6 7
12 12 11 12 12 12 11 10 10 10 10 10 10 10 10 11 11 11 11 11 11 11 11 10 10 10 10 10 10 10 9 9 8 8 8 8 7 6 6 5 6 5 5
11 11 12 12 12 11 11 10 9 9 9 9 9 9 10 9 9 9 9 9 9 9 9 9 9 9 9 10 10 9 9 8 7 7 6 6 5 5 5 5 5 5 5
11 10 11 11 11 11 10 10 9 9 9 8 8 7 8 8 8 9 9 9 9 9 8 8 8 7 7 8 8 8 8 7 6 6 5 4 4 4 3 4 4 4 4
10 11 10 10 10 10 10 9 9 9 8 8 8 7 7 7 7 6 6 7 7 8 8 7 7 7 6 7 7 7 6 5 5 5 4 3 3 3 3 3 3 2 3
9 9 9 9 10 10 9 9 9 8 8 8 8 7 7 6 6 6 6 6 6 7 7 7 7 6 6 6 5 5 4 5 4 4 4 3 2 3 3 2 3 2 1
8 8 8 9 10 9 9 9 9 9 9 8 7 7 7 7 6 6 6 6 6 6 6 6 6 5 4 4 3 4 4 4 4 4 3 4 3 2 2 1 1 2 2
7 7 7 7 7 8 8 9 8 8 8 7 6 6 6 6 6 6 6 6 5 5 4 3 2 3 3 3 3 4 4 4 4 3 2 3 4 3 1 1 1 1 0
7 6 7 6 6 7 8 8 7 6 7 7 7 7 7 6 6 6 6 4 4 4 3 3 3 3 4 4 4 3 2 2 2 2 2 2 2 1 1 0 0 0 -0
6 6 7 6 4 4 5 6 5 5 6 6 6 5 5 5 5 5 4 4 4 5 4 2 3 4 4 3 3 3 3 2 2 2 2 1 1 1 0 0 -0 -0 -0
6 6 6 6 4 3 4 4 4 5 5 5 5 5 5 4 4 3 4 5 4 4 4 3 3 4 3 3 2 2 2 2 1 1 1 1 0 0 0 0 -0 -0 -0
5 5 5 5 3 3 2 3 3 4 4 4 4 4 4 4 4 3 3 4 4 3 3 3 3 3 3 3 3 2 2 2 2 1 0 -0 -0 -0 -1 -0 -1 -1 -1
5 5 4 4 3 2 2 2 2 2 3 3 3 3 3 3 3 3 3 3 4 3 3 3 3 3 3 3 3 2 1 1 1 0 0 -0 -1 -1 -1 -0 -0 -1 -1

GFSMW_925_temp_117.txt.gz
Temp
18 18 17 15 14 15 15 16 17 18 18 16 16 17 18 19 19 19 19 18 19 19 19 19 19 18 18 19 18 18 18 18 18 19 19 19 19 19 18 18 18 18 17
18 19 17 15 13 15 16 14 17 17 17 17 17 18 18 19 19 19 19 19 19 19 18 19 19 18 19 18 18 18 18 18 18 19 20 20 19 18 17 16 16 15 16
18 19 18 16 14 14 15 16 16 17 17 17 17 18 19 19 18 18 19 18 18 18 18 18 18 18 18 18 18 17 18 18 19 17 18 19 19 19 17 16 15 16 16
18 18 17 16 14 14 15 15 16 16 17 17 17 17 17 18 18 18 17 17 18 17 17 18 17 17 17 17 17 17 18 17 16 16 17 16 17 17 18 16 15 14 15
18 17 17 17 15 15 15 15 15 16 17 17 17 17 17 18 17 17 17 16 17 16 16 16 16 16 16 16 16 16 16 16 16 16 16 15 15 16 16 17 15 15 15
16 16 17 17 16 15 16 16 15 16 17 17 18 17 17 18 17 17 17 16 16 15 15 16 16 16 16 17 16 15 15 15 15 16 16 16 16 15 15 15 15 15 15
15 16 17 17 16 15 15 15 15 16 15 16 16 16 16 17 17 17 17 16 15 15 15 16 16 17 17 17 17 16 15 15 15 15 15 15 16 16 16 15 15 15 15
13 16 17 16 16 15 15 15 14 14 15 14 15 15 15 15 15 15 17 15 15 15 16 16 17 16 16 16 15 15 15 15 15 15 15 15 15 15 14 14 14 14 15
13 14 17 16 16 15 14 14 14 14 14 14 15 15 15 16 15 15 15 15 15 15 15 15 15 15 15 15 15 15 15 14 15 14 14 14 14 13 13 13 13 13 14
13 13 15 16 16 16 15 15 15 15 15 14 15 14 15 15 15 15 15 14 15 15 15 15 15 15 15 15 15 14 14 14 14 13 13 12 12 12 12 11 11 11 12
11 12 13 16 15 15 15 15 15 15 14 14 14 14 14 14 14 15 15 14 14 14 14 14 15 14 14 14 14 13 13 13 13 13 12 12 11 11 11 11 10 10 10
11 13 13 15 15 14 14 14 14 15 15 14 14 14 13 13 13 13 14 15 15 15 16 14 14 14 14 13 13 13 13 12 12 12 12 11 11 11 10 10 10 10 9
11 12 12 14 13 12 12 13 13 14 14 14 14 14 13 13 13 13 13 13 14 13 13 14 13 13 13 13 12 12 12 12 12 11 11 11 10 10 9 9 8 8 7
10 11 13 13 12 12 11 11 12 13 13 13 13 13 13 13 13 13 13 13 13 12 12 13 12 12 12 12 12 12 11 11 10 10 9 9 8 9 8 8 8 7 7
11 11 11 13 13 13 12 10 10 11 12 12 12 12 12 11 11 11 10 10 10 10 11 12 11 11 11 11 11 11 10 9 9 9 8 8 8 8 7 7 7 6 5
12 12 12 12 12 12 11 11 10 10 11 11 10 10 10 10 10 10 10 10 10 11 11 10 10 10 10 10 11 10 9 9 8 8 8 7 7 6 6 6 5 5 5
12 12 12 12 12 12 12 11 10 10 10 9 9 9 9 9 9 9 9 9 9 9 10 9 9 9 10 10 10 9 9 8 8 7 7 6 6 5 4 4 5 4 4
11 12 12 11 12 12 11 11 10 10 9 9 8 8 8 8 7 7 7 7 7 7 7 7 7 8 8 9 8 8 8 8 7 6 6 5 4 4 3 3 3 3 3
11 10 11 11 11 11 11 11 10 10 9 9 8 8 8 7 7 7 7 7 7 6 6 6 6 7 7 7 7 7 6 6 6 6 5 4 4 3 3 3 3 3 3
9 10 10 11 11 10 11 11 11 11 9 9 8 8 7 7 7 7 6 5 6 6 6 6 6 6 5 6 6 6 5 5 5 5 4 5 4 4 3 2 2 2 2
9 9 8 8 9 9 10 10 9 8 8 7 7 7 7 7 7 6 6 6 6 5 5 5 5 5 5 5 5 5 4 5 5 4 3 3 4 3 2 1 1 1 1
8 8 8 7 6 7 9 8 7 7 7 7 7 6 6 6 5 5 5 5 4 4 4 4 4 4 4 4 4 4 4 4 3 3 3 2 3 2 2 1 1 1 1
8 8 8 6 5 4 5 4 4 6 6 7 7 6 6 6 5 5 5 5 5 5 5 5 4 4 4 4 4 4 3 2 2 2 2 2 2 2 2 1 1 0 0
8 8 8 7 6 4 3 4 5 5 6 6 6 5 6 6 6 5 6 6 6 6 6 4 3 5 4 4 4 3 3 3 2 2 2 2 2 1 1 1 1 0 0
7 7 7 6 5 5 4 3 3 4 4 4 5 5 4 4 4 4 4 4 5 5 5 5 4 5 4 4 4 4 3 3 3 2 1 1 1 0 0 0 -0 0 -0
7 7 6 6 5 4 3 3 2 3 4 4 4 3 3 3 3 4 4 4 4 4 3 3 3 3 3 3 3 3 3 2 2 1 0 0 0 -0 -0 -0 -0 -0 -0

GFSMW_925_temp_120.txt.gz
Temp
18 19 18 17 18 17 15 15 15 15 17 18 20 20 20 19 19 19 18 19 19 19 19 19 19 19 19 18 18 18 19 19 19 18 19 19 19 19 18 18 18 18 17
18 17 17 16 16 16 15 15 15 15 17 18 18 19 19 19 19 19 19 19 19 19 19 19 19 18 18 18 18 18 18 18 18 18 18 17 18 18 18 17 17 17 16
16 15 16 16 15 14 14 14 15 16 16 18 18 18 19 19 18 18 18 18 18 18 19 19 18 18 18 18 18 18 18 18 17 18 18 16 16 17 17 16 16 16 16
17 17 16 15 15 14 15 16 14 16 16 18 17 17 18 18 18 18 18 19 19 18 18 18 18 18 18 18 18 18 17 17 17 17 17 17 17 15 15 16 15 16 15
16 16 16 16 15 13 15 15 16 15 15 18 17 17 17 18 18 18 18 18 18 18 18 18 18 18 18 18 17 17 17 17 16 16 16 16 16 16 15 14 15 15 15
16 16 16 16 15 14 14 15 15 17 16 15 17 17 17 17 17 17 17 17 17 18 17 17 17 17 17 17 17 17 17 17 16 16 16 16 15 15 15 14 15 14 15
14 14 14 14 15 14 14 15 15 15 15 15 16 19 18 19 17 17 16 17 16 16 17 17 16 16 17 17 17 17 16 16 16 15 15 15 16 16 16 15 15 15 15
14 13 14 14 15 15 14 14 14 14 14 15 15 16 19 16 19 16 16 16 15 15 15 15 16 16 17 17 17 16 17 15 16 15 15 15 15 15 15 15 14 12 14
12 12 15 15 15 15 14 14 14 14 15 14 15 15 15 15 16 16 15 15 15 15 15 16 16 16 16 16 17 17 16 15 16 16 15 14 14 14 14 13 12 13 12
12 12 14 15 15 14 15 15 16 16 14 14 14 14 14 14 14 15 15 15 15 15 16 16 15 15 16 16 15 14 15 15 15 14 14 14 14 13 12 12 11 11 11
10 11 13 15 15 14 14 14 14 14 14 14 14 14 15 15 15 14 15 15 15 15 16 15 15 15 15 15 14 17 16 14 14 14 13 13 13 12 12 11 11 11 11
10 11 14 14 14 14 14 15 15 14 14 14 14 14 14 14 14 14 14 14 14 14 15 14 14 14 14 15 14 15 15 14 13 13 12 12 12 11 11 11 10 10 10
11 11 11 12 12 12 12 13 14 14 14 14 14 14 13 14 14 14 14 13 14 14 14 13 13 14 14 14 14 14 14 13 13 12 12 11 11 10 10 10 10 9 8
10 11 11 11 11 11 11 11 13 14 14 14 14 13 13 13 13 13 13 13 13 13 13 13 13 14 14 13 13 13 12 12 12 11 11 11 11 10 10 9 8 8 7
10 10 10 10 10 10 10 11 11 12 13 13 13 13 13 12 12 12 12 13 13 13 13 13 13 13 12 12 12 12 12 11 11 10 10 10 10 10 9 8 7 7 6
10 10 11 10 11 10 9 10 10 11 11 11 11 11 11 11 11 11 11 12 12 11 11 11 11 11 12 12 12 12 11 11 11 10 9 9 9 8 7 6 6 6 6
10 10 10 10 10 10 10 10 9 10 9 10 9 9 9 9 9 10 10 10 10 10 10 9 10 11 11 11 11 11 11 10 10 10 9 8 8 7 6 5 5 5 5
9 10 10 10 10 11 10 10 9 9 9 9 9 9 9 8 8 9 8 8 9 9 9 8 9 9 9 9 9 9 10 9 9 8 8 7 6 5 5 4 4 3 3
9 9 10 10 10 11 11 10 10 9 9 8 8 8 8 7 7 7 7 7 7 7 8 8 8 9 8 8 8 9 9 8 8 7 7 6 5 5 4 4 3 3 3
8 8 8 9 9 10 10 9 8 8 8 8 8 8 8 7 7 7 7 7 7 7 7 7 7 7 8 8 7 7 7 7 6 6 6 5 5 5 4 4 2 2 2
8 7 6 6 6 9 8 7 7 7 7 7 7 7 7 7 7 6 6 6 6 6 6 6 6 6 7 7 6 6 6 6 6 5 5 5 4 4 4 3 2 2 2
8 6 5 4 6 7 7 5 5 7 7 7 7 7 7 6 6 6 6 5 5 5 5 5 5 5 5 5 6 5 5 5 5 5 4 4 4 3 3 2 1 1 1
8 7 6 4 4 5 5 4 4 6 7 7 7 6 6 6 6 5 5 5 5 4 4 4 4 4 4 4 4 4 5 4 4 4 3 3 2 2 2 1 1 0 0
7 7 6 5 4 4 4 4 4 5 5 5 5 5 6 6 6 6 6 5 5 5 6 5 5 4 4 4 4 4 3 2 2 2 2 3 2 2 2 1 1 1 0
7 7 6 5 4 4 4 5 6 6 5 4 4 4 4 4 5 5 5 5 5 5 5 5 5 4 4 5 4 4 3 3 2 2 2 1 1 1 1 1 1 1 0
6 6 5 5 4 4 4 3 3 4 5 5 4 3 3 3 3 3 3 3 4 4 4 4 4 4 3 4 4 3 3 2 2 2 1 1 1 1 1 0 0 0 0

GFSMW_925_temp_123.txt.gz
Temp
15 16 17 18 18 19 17 17 17 18 16 14 15 15 17 17 17 18 19 19 19 19 19 19 19 19 19 19 19 19 19 19 18 18 18 18 18 18 18 18 18 18 18
15 15 16 17 17 17 17 17 17 16 18 15 16 16 16 17 18 19 20 20 19 20 19 18 19 19 19 19 19 19 18 18 18 18 17 15 17 17 17 17 17 17 17
14 15 15 14 16 16 15 16 16 16 19 15 16 16 17 17 17 18 18 19 19 19 19 19 19 19 19 19 18 18 18 18 18 18 18 15 15 16 16 17 16 16 16
14 13 14 13 14 16 16 16 15 16 17 15 16 16 16 17 18 17 18 18 19 19 19 19 19 19 19 18 18 18 18 18 18 18 18 17 17 14 14 15 15 16 16
13 13 14 14 15 17 15 14 14 15 16 16 15 16 17 18 17 17 18 18 19 19 19 19 19 18 18 18 18 18 18 17 18 18 16 16 16 16 14 13 14 15 15
12 14 15 15 15 16 15 14 14 13 14 15 15 16 17 17 17 17 17 17 18 18 18 18 18 18 18 18 18 17 17 17 17 17 17 17 16 15 15 14 14 14 15
13 14 14 13 15 14 14 14 14 14 14 16 15 16 17 17 17 17 17 16 17 17 18 18 18 18 18 18 17 17 17 17 17 16 16 16 16 16 15 15 15 14 15
12 13 12 12 14 14 14 14 14 14 14 15 14 15 15 17 17 17 17 16 16 17 18 18 18 18 17 17 17 16 16 16 16 16 15 15 15 15 16 15 15 12 13
10 11 12 12 15 14 13 14 14 15 16 15 14 15 15 15 18 16 16 16 16 16 17 17 17 17 17 17 16 16 16 16 15 15 15 15 15 15 15 15 14 13 11
11 11 11 13 15 14 13 13 15 16 14 15 14 14 14 16 16 18 16 15 16 16 16 17 16 16 16 16 15 15 15 15 15 15 14 14 15 15 14 13 13 12 12
11 11 12 15 14 13 13 13 13 13 14 14 14 14 14 14 16 16 16 16 16 16 15 16 16 16 16 15 15 15 15 14 15 14 15 14 14 13 13 12 11 11 11
12 13 14 14 14 13 14 13 13 13 13 13 14 14 14 14 15 14 14 14 15 15 14 15 15 15 15 15 16 15 14 14 15 15 15 13 12 12 12 11 11 10 10
11 11 13 13 13 12 13 13 14 14 14 13 13 13 13 14 14 14 14 14 14 14 14 14 14 14 15 15 15 15 14 14 14 15 14 13 12 11 11 11 10 9 9
10 10 10 11 11 11 11 12 12 13 14 13 13 13 13 13 13 13 14 14 14 14 14 14 14 14 14 14 14 14 14 14 13 13 13 12 11 11 10 10 9 9 8
9 9 9 9 10 10 10 10 11 12 13 12 12 13 13 13 13 13 13 13 13 13 13 13 14 13 13 13 13 13 13 13 11 12 12 11 11 10 10 10 9 8 8
9 9 9 9 9 9 9 9 9 10 11 11 11 11 12 12 12 12 12 13 13 13 13 13 13 12 12 13 13 13 13 11 12 11 10 10 10 9 8 9 8 8 7
9 9 9 8 8 8 8 8 9 10 9 9 9 10 10 10 10 11 11 11 11 11 11 11 11 10 10 11 11 11 11 11 11 11 10 9 8 8 8 7 7 6 6
8 9 9 9 9 9 8 9 8 8 9 9 9 8 8 8 9 8 8 9 9 9 9 9 9 9 8 10 10 11 11 11 10 10 9 9 8 8 7 6 6 5 4
7 7 7 8 8 8 8 8 8 8 8 8 7 8 8 8 8 8 8 8 8 8 7 7 8 8 8 8 8 9 10 9 9 8 8 8 8 7 5 5 4 4 3
6 5 5 6 6 7 7 7 7 7 7 7 7 8 8 8 7 7 7 7 7 8 8 7 7 7 7 6 6 6 8 7 7 7 6 6 6 5 5 5 4 4 3
5 5 5 4 5 6 6 5 5 6 7 7 7 7 7 7 7 7 7 7 6 6 6 6 6 6 6 6 5 6 7 8 7 6 6 5 5 5 5 5 4 3 2
5 5 4 3 4 5 6 5 5 6 6 6 6 6 6 6 6 6 6 6 6 5 5 5 5 5 5 5 5 5 5 5 6 6 5 5 5 4 4 4 3 2 1
6 5 4 4 4 5 5 5 5 6 6 6 6 6 6 6 6 6 6 5 5 5 5 5 5 5 5 5 4 4 4 4 4 5 5 4 4 3 3 3 2 2 1
6 5 5 4 3 4 4 4 4 5 6 5 5 5 5 5 5 5 5 5 5 5 5 5 5 5 5 5 5 4 4 4 3 4 4 3 3 3 3 2 2 1 1
6 6 5 5 4 5 5 4 4 4 4 4 4 4 4 4 4 4 4 4 4 3 4 4 4 4 4 4 4 4 4 4 3 3 2 2 2 2 1 1 1 1 0
5 5 5 5 5 6 5 5 4 4 3 3 2 2 2 2 2 2 3 3 3 3 3 3 3 3 3 3 3 3 3 3 3 2 2 1 1 1 1 1 1 0 0

GFSMW_925_temp_126.txt.gz
Temp
13 14 15 15 14 16 16 15 15 17 17 17 17 14 14 16 16 16 16 17 17 17 17 18 19 18 18 18 18 19 19 18 18 18 18 18 18 18 18 18 17 17 17
13 13 14 14 14 15 15 14 15 16 16 17 18 17 16 15 16 16 15 16 17 17 17 18 19 18 18 18 19 19 18 18 18 18 17 15 16 17 17 17 17 17 16
12 13 13 14 14 14 15 14 15 16 16 17 17 16 15 15 15 16 15 16 17 17 18 19 19 18 18 19 19 19 19 18 17 18 18 14 14 15 15 16 16 16 16
12 13 12 12 13 14 16 16 16 15 15 16 15 15 15 15 15 16 15 16 16 17 18 19 18 18 18 19 19 19 19 18 17 17 17 18 17 14 14 15 15 15 15
11 11 12 13 13 14 14 15 16 16 16 16 15 15 15 15 16 16 15 15 16 17 18 19 19 18 18 19 19 18 18 18 18 17 16 16 16 16 14 13 13 15 15
11 11 12 13 13 14 15 16 16 15 15 15 15 15 15 15 15 15 15 15 16 17 19 19 18 19 19 19 19 18 18 18 18 18 18 17 16 15 15 13 14 14 15
11 11 11 11 13 14 14 15 15 14 14 14 14 14 15 15 15 15 15 16 16 16 17 19 19 19 19 19 18 18 17 17 18 18 17 17 17 17 16 15 14 13 14
9 10 11 11 13 13 15 15 14 14 13 14 14 14 14 14 15 15 15 16 16 17 17 18 19 19 18 18 18 17 17 17 17 17 17 17 16 16 16 16 14 11 12
10 10 10 10 12 14 15 15 15 14 13 14 14 14 15 14 14 15 16 16 16 16 18 18 18 18 18 18 17 17 17 16 16 16 16 16 15 16 16 15 16 14 10
10 9 10 10 13 15 15 14 14 14 14 14 14 15 16 14 14 15 16 16 16 16 17 17 18 18 17 17 17 16 16 16 16 15 15 15 15 15 15 15 15 14 13
10 10 10 12 13 14 13 13 13 15 14 13 13 16 15 14 15 15 15 16 16 16 17 17 17 17 17 17 16 16 15 15 15 15 15 15 14 14 14 14 13 13 12
11 10 11 13 12 13 13 13 13 14 14 14 14 14 14 14 14 14 15 15 15 15 16 16 16 17 17 16 15 15 15 14 14 14 14 13 13 13 13 13 12 13 12
12 12 13 13 13 13 13 13 13 13 13 14 13 13 14 14 14 14 14 15 15 15 16 15 15 17 16 16 15 15 14 14 14 14 13 13 13 13 12 13 12 11 11
10 10 11 11 11 11 11 11 13 13 13 13 13 13 13 13 14 13 14 14 14 14 15 16 17 17 16 14 14 14 14 14 14 14 14 14 14 14 13 12 11 11 10
9 9 9 10 10 10 10 10 11 12 12 12 12 13 13 13 13 13 13 13 14 14 14 14 14 14 14 14 14 14 14 14 13 13 13 13 13 13 14 13 11 10 9
8 9 8 8 9 9 9 9 9 9 12 11 10 12 12 12 12 12 13 13 13 13 13 13 13 13 14 13 13 13 13 13 13 12 12 11 11 10 11 11 10 10 9
8 8 8 8 7 7 7 8 8 9 9 9 10 10 10 10 10 10 11 10 11 11 12 12 13 13 13 13 12 13 12 12 11 11 10 10 9 10 10 9 8 7 7
6 6 7 7 7 7 7 7 7 8 7 8 8 9 9 8 9 9 9 9 9 9 9 9 9 10 9 9 9 9 10 9 9 9 9 9 9 9 9 8 7 6 6
5 5 5 6 6 6 6 6 6 6 7 7 7 8 8 8 8 8 8 8 8 8 8 7 7 8 8 7 8 8 8 8 8 8 8 9 9 7 6 7 6 5 4
4 4 4 5 5 5 6 6 5 5 5 6 6 6 7 7 7 7 7 8 8 7 7 7 7 7 6 6 6 7 7 6 7 6 7 7 7 7 7 6 5 4 4
4 4 4 3 4 5 6 5 5 5 6 6 7 7 7 6 6 5 6 6 7 7 6 6 6 6 5 5 5 5 5 5 5 6 6 6 5 5 5 5 5 5 4
4 3 3 3 4 5 5 4 4 5 6 6 6 6 6 6 6 7 6 6 6 6 5 5 6 6 5 5 6 5 5 5 5 5 5 5 5 4 4 4 4 3 3
4 4 4 3 3 4 5 4 4 5 6 6 5 5 5 5 5 5 5 5 5 5 5 5 5 5 5 5 5 4 4 4 4 4 4 4 4 4 3 3 3 2 2
4 5 4 3 3 4 4 3 4 4 5 4 4 4 4 4 5 5 4 4 4 4 4 4 4 5 5 5 4 4 4 4 4 4 4 4 4 3 3 2 2 2 1
5 4 4 4 3 4 3 3 4 4 4 4 3 3 3 3 3 3 3 3 3 3 3 3 3 3 4 4 4 4 3 3 3 3 3 2 2 2 2 1 2 1 1
5 5 4 4 3 3 3 3 2 3 3 2 2 2 1 1 1 1 2 2 2 2 2 2 2 3 3 3 3 3 3 2 2 2 2 2 2 1 1 1 1 0 -0

GFSMW_925_temp_129.txt.gz
Temp
12 13 13 13 14 14 15 15 15 15 16 16 14 14 15 16 17 16 16 16 16 16 17 17 17 17 18 18 18 17 18 18 18 18 17 17 17 17 17 17 17 17 17
11 12 13 13 12 14 15 15 15 14 15 16 16 15 17 15 17 17 16 16 16 16 16 16 17 17 17 17 17 17 17 18 18 17 17 15 16 16 16 16 17 17 16
11 11 12 12 12 11 14 14 14 14 14 14 15 15 16 15 14 15 16 15 16 16 16 16 17 17 16 17 17 17 18 18 17 18 18 13 14 14 15 15 16 16 16
9 11 11 11 11 11 13 14 14 14 14 14 15 14 15 15 14 15 15 15 16 16 15 16 16 17 16 17 17 18 18 18 16 17 18 17 16 14 14 14 15 15 15
8 9 11 12 12 13 13 13 13 13 14 13 14 14 14 15 16 15 15 15 16 16 16 16 17 17 17 17 18 17 18 18 18 17 16 16 16 16 14 13 13 14 15
9 9 11 12 11 13 13 12 12 14 13 15 14 14 14 15 15 15 15 15 15 15 15 16 16 16 17 17 18 18 18 18 18 17 17 17 16 15 14 12 12 13 14
8 9 9 9 11 12 12 12 12 13 15 16 15 15 14 14 15 15 15 15 15 15 15 15 15 15 16 18 18 18 18 18 18 18 17 18 18 18 17 15 13 12 13
9 8 9 9 10 12 12 12 12 14 15 15 15 15 15 14 14 15 16 15 15 15 15 15 14 15 17 18 18 18 18 18 18 17 17 18 17 17 17 16 14 11 11
10 9 9 9 10 12 12 12 13 14 14 14 14 14 14 14 14 15 15 15 16 15 15 16 15 15 17 18 18 18 18 18 17 17 17 17 16 16 17 17 16 15 10
9 9 8 9 10 12 13 13 13 14 14 14 13 14 14 14 15 14 14 15 14 14 14 15 14 15 17 18 18 17 17 17 17 17 17 15 16 16 16 16 16 16 15
10 9 9 10 12 13 14 15 14 14 14 14 13 13 13 15 15 15 14 14 15 15 14 14 14 15 17 18 17 17 17 17 16 16 16 15 16 16 15 16 15 15 14
11 10 11 12 12 12 12 13 12 13 13 13 13 13 13 14 15 14 14 14 15 15 15 15 15 17 16 17 16 17 16 16 16 15 15 15 15 15 15 15 14 14 13
11 11 11 11 11 10 10 12 13 13 13 13 13 13 13 14 14 14 14 14 14 15 15 15 15 16 16 15 16 16 16 15 16 15 14 14 14 14 14 13 14 13 13
9 10 10 11 11 10 11 12 13 12 12 13 13 13 13 13 13 14 14 14 16 14 15 17 17 16 15 15 15 15 15 14 14 15 15 14 14 14 14 13 12 12 11
8 8 8 9 9 9 9 10 10 11 12 11 11 12 13 12 13 14 14 14 14 14 14 14 14 14 14 14 14 13 13 13 15 15 14 15 15 14 13 13 12 11 10
8 7 7 7 8 8 9 9 9 9 10 9 10 11 12 12 12 12 13 13 13 13 13 13 13 13 14 13 13 13 13 14 15 14 13 13 13 13 13 12 11 12 11
7 7 7 6 6 6 7 7 8 8 8 8 8 9 10 10 10 11 11 10 10 11 11 11 13 12 13 13 13 13 13 12 13 12 13 13 12 11 10 10 10 9 9
5 6 6 6 6 6 6 7 7 7 7 7 8 9 9 8 9 10 10 10 11 11 10 9 9 9 8 9 10 10 10 10 10 11 10 10 9 9 8 8 7 7 8
4 4 4 4 5 5 6 6 6 6 6 6 6 6 7 7 7 8 8 8 9 9 10 9 9 10 9 9 8 8 8 8 7 7 7 7 8 7 7 7 7 7 6
3 3 3 4 4 4 4 4 4 4 4 5 6 7 7 7 6 6 7 6 6 5 6 6 7 7 6 6 8 8 7 7 6 6 6 7 6 6 6 6 6 5 5
3 3 4 3 3 5 4 3 3 3 4 5 5 5 6 6 6 6 6 6 7 7 7 6 6 6 5 5 5 5 6 6 6 6 6 5 5 5 5 4 5 5 5
3 4 3 2 3 4 3 3 2 4 5 5 5 5 5 5 5 5 5 6 6 5 5 5 5 5 5 5 5 5 5 4 5 5 6 5 5 5 4 3 4 3 3
3 4 3 3 4 4 5 3 3 4 5 5 4 4 5 5 5 5 4 4 4 4 4 4 4 4 4 4 4 4 4 4 4 4 4 4 4 4 4 3 3 3 3
4 4 4 3 2 3 3 3 3 4 4 3 3 4 3 3 3 3 3 3 2 3 3 3 3 4 4 4 4 4 4 4 3 3 3 4 3 3 3 3 2 2 2
4 4 4 3 3 4 4 4 3 4 4 3 2 2 2 1 1 1 1 1 1 1 2 2 2 2 3 3 3 3 3 3 3 3 3 3 2 2 2 2 1 1 1
4 3 3 3 2 2 2 2 2 2 2 2 1 1 1 -0 -1 -1 -0 1 1 1 1 1 1 1 2 2 2 2 2 2 2 2 2 2 2 2 2 1 0 -0 -0

GFSMW_925_temp_132.txt.gz
Temp
11 11 12 12 13 13 13 15 15 15 15 15 15 14 15 16 16 16 16 17 16 16 16 16 17 18 17 18 17 17 17 17 17 16 15 16 16 17 17 17 17 17 17
10 10 11 11 12 12 13 14 14 15 15 15 14 14 15 16 17 17 17 16 16 16 16 16 16 17 16 17 17 17 16 17 17 17 16 14 15 16 16 16 16 16 16
9 9 9 10 10 11 12 13 14 14 14 14 14 14 15 15 15 15 15 16 16 16 16 16 15 16 16 16 17 16 17 16 16 17 17 13 14 14 15 15 15 15 15
9 9 9 9 10 10 12 13 13 14 14 14 13 13 14 14 14 14 15 16 16 16 16 16 15 16 15 16 16 17 16 17 16 16 18 17 16 14 13 13 14 15 15
9 8 8 9 10 10 11 12 13 13 14 13 12 13 14 14 15 15 15 15 15 16 16 16 15 15 15 15 17 16 17 17 17 17 16 16 16 16 14 13 12 14 14
8 8 8 9 9 10 11 11 12 12 13 12 12 13 13 14 14 14 14 15 15 15 16 16 15 15 15 15 16 16 17 17 17 17 17 17 16 14 14 12 12 13 13
8 7 8 7 9 10 10 11 10 11 11 11 12 12 13 13 14 14 14 15 15 15 15 15 15 15 16 16 16 16 17 17 17 17 17 17 17 18 17 15 12 12 12
8 7 8 8 9 9 10 10 10 11 11 11 12 12 13 13 14 14 14 14 15 15 15 15 15 15 16 15 15 15 16 17 17 17 17 17 17 18 18 17 14 11 11
9 7 8 8 9 10 10 11 10 11 11 11 12 13 15 14 13 14 15 14 15 16 15 15 15 15 15 16 15 15 15 16 16 17 17 17 17 17 17 17 17 16 11
9 9 8 8 10 11 11 11 11 11 12 13 14 14 15 14 14 14 14 14 14 15 16 15 15 15 14 15 14 14 15 15 16 16 16 17 17 17 17 16 16 16 16
11 10 8 9 10 11 11 12 12 12 12 12 13 14 14 15 14 14 14 14 14 15 15 15 15 14 14 14 14 14 14 15 15 16 16 17 17 16 16 15 16 16 15
11 10 11 11 11 11 11 11 12 12 12 14 15 14 14 12 13 15 16 16 14 15 15 14 14 14 14 15 14 14 14 15 15 16 16 16 16 15 15 15 15 15 15
9 10 11 11 11 11 11 11 11 11 11 12 12 12 12 12 12 14 15 15 14 14 14 14 14 14 14 14 14 14 14 15 16 16 16 16 16 15 14 15 14 14 14
8 8 9 9 10 10 11 10 10 11 11 12 11 11 12 13 13 14 14 14 14 14 14 14 14 14 14 14 14 14 14 15 16 18 17 16 16 15 15 14 14 14 14
7 7 7 8 8 9 9 9 9 10 10 11 11 10 12 13 13 13 13 14 14 14 14 14 14 14 14 14 14 16 16 16 14 15 16 15 16 15 16 15 13 13 12
6 7 7 7 7 7 7 8 8 8 9 9 9 9 9 11 12 12 13 13 13 14 14 14 14 13 13 13 14 14 15 13 13 13 13 13 14 16 16 14 13 15 12
6 6 6 6 6 6 6 6 7 7 7 7 7 7 7 8 9 10 11 12 12 12 12 11 12 12 12 13 13 13 13 13 13 13 13 13 14 14 13 13 13 12 11
5 5 5 5 5 5 5 5 5 6 6 6 6 6 6 6 7 7 7 8 9 10 10 9 9 9 9 9 11 11 11 11 11 11 11 10 10 11 11 10 9 8 8
4 4 3 4 4 4 4 5 4 4 4 4 4 5 6 6 7 6 7 7 8 7 7 6 7 8 8 9 9 9 10 9 9 9 8 7 7 7 8 8 7 7 7
3 2 3 3 3 3 3 4 3 3 3 3 4 5 6 6 5 5 5 6 6 5 6 6 6 6 6 6 7 7 6 6 6 6 7 8 7 6 7 6 6 6 5
3 3 2 2 2 3 3 3 3 2 3 5 5 5 5 5 5 5 6 6 6 6 6 6 5 5 5 5 5 5 6 6 6 6 5 5 6 8 8 7 7 5 5
3 3 1 1 3 4 4 2 1 3 4 4 4 4 4 5 5 5 5 5 5 5 5 5 5 5 5 5 5 5 4 4 4 4 4 5 5 4 5 4 4 4 4
3 3 3 2 2 3 3 2 2 4 4 3 3 3 3 3 2 3 3 2 3 3 3 3 3 3 4 4 4 4 4 4 4 3 4 4 4 4 4 4 4 3 3
3 3 3 2 1 2 2 2 2 3 3 2 2 3 3 2 2 1 1 1 1 2 2 2 2 2 3 3 3 3 4 4 4 3 3 3 3 3 3 3 3 2 2
4 3 3 2 2 3 3 3 4 4 3 3 2 2 2 0 -0 -0 -0 -0 0 1 1 1 1 1 1 1 2 2 3 3 2 3 3 3 2 2 2 2 2 2 2
4 4 3 3 3 2 2 2 2 2 2 2 1 1 1 1 0 0 1 -0 -1 -1 -0 0 0 0 0 1 1 1 2 2 2 2 2 2 2 2 1 1 1 1 0

GFSMW_925_temp_135.txt.gz
Temp
11 11 11 11 11 12 12 12 13 14 15 15 14 14 14 16 15 16 17 17 17 17 16 16 16 16 17 17 17 16 15 15 16 16 15 16 16 17 17 17 17 17 17
11 10 10 10 10 11 11 11 12 13 14 14 13 14 14 14 14 16 17 16 16 16 16 16 16 16 16 15 16 16 14 15 16 16 16 17 16 16 16 16 16 17 17
10 11 10 10 9 9 10 10 12 13 13 14 14 13 14 14 14 14 15 16 16 16 16 16 16 16 15 15 17 16 16 15 15 17 18 16 18 15 15 15 16 16 16
11 11 11 10 9 8 10 10 11 12 13 13 12 13 13 14 14 14 15 15 16 16 16 16 16 15 15 15 16 16 16 16 16 15 17 17 16 17 16 13 14 15 15
11 10 10 9 9 9 9 10 10 11 12 12 12 12 13 14 14 14 15 15 15 16 16 16 15 15 15 16 16 15 15 15 16 16 15 14 15 16 15 14 13 13 14
10 10 9 8 8 8 9 9 9 10 11 11 11 12 12 13 13 14 14 14 15 15 15 15 15 15 15 15 16 15 15 15 16 15 16 16 16 15 14 14 13 14 13
9 9 9 8 8 8 9 8 9 9 10 11 10 11 12 12 13 14 14 14 15 15 15 15 15 15 15 15 14 15 15 16 15 15 15 16 16 17 17 16 13 15 12
8 8 9 8 8 8 9 9 9 10 10 11 11 11 11 12 13 13 14 14 15 15 15 15 15 15 15 15 14 15 15 14 15 15 16 16 16 17 17 17 15 13 12
9 10 9 8 8 9 10 10 10 10 11 10 10 10 11 11 12 13 13 14 14 15 15 15 15 15 15 15 14 14 15 15 14 14 15 16 16 16 17 17 18 17 16
10 11 11 9 8 9 10 10 10 10 11 10 10 10 10 11 12 12 13 14 14 15 15 15 15 15 15 14 14 14 14 14 14 14 14 15 16 16 16 17 17 17 17
9 10 10 9 9 10 10 11 11 10 10 11 10 10 11 11 12 12 13 15 14 14 15 15 15 15 15 14 14 14 14 14 14 14 14 15 15 15 15 16 16 15 15
9 9 10 11 11 11 11 11 11 10 10 11 11 11 11 12 13 14 14 15 15 14 14 14 15 15 14 14 14 14 14 14 14 14 14 14 14 15 15 15 15 15 14
8 8 9 9 9 9 11 10 10 11 11 11 10 11 11 12 13 14 14 14 14 14 14 14 14 15 15 14 14 14 14 14 14 14 14 14 14 14 14 14 13 13 12
7 7 7 7 8 8 10 10 11 11 10 11 11 12 12 13 13 13 13 13 14 14 15 15 14 14 15 14 14 14 14 15 14 14 13 14 14 14 14 13 14 14 12
7 7 6 7 7 7 7 7 7 8 9 10 10 10 12 12 13 12 12 12 14 15 14 14 14 14 13 14 14 13 13 13 13 13 13 13 14 16 17 16 13 12 12
6 6 6 6 6 6 6 6 6 7 7 7 7 10 10 10 11 11 13 13 13 13 13 13 13 13 13 13 13 13 13 13 12 12 13 13 13 13 13 13 13 13 14
5 5 5 5 5 5 5 5 5 5 5 5 6 6 6 6 6 7 8 10 11 12 12 11 12 12 13 13 13 13 13 13 13 13 13 13 13 12 12 12 12 12 12
4 4 4 4 4 4 4 4 4 5 5 4 5 5 5 5 6 7 6 7 7 7 7 7 7 8 9 11 12 12 12 12 11 11 11 11 11 11 10 9 9 9 9
4 3 3 3 4 3 3 4 3 3 3 3 3 4 5 5 5 5 5 5 7 6 6 7 7 7 6 7 8 8 8 7 7 8 7 7 8 10 10 9 7 6 6
2 2 2 2 2 3 3 3 3 3 2 2 3 3 4 5 5 5 5 5 5 5 6 6 5 5 5 5 6 7 6 6 6 6 6 6 6 6 6 8 8 7 7
2 3 2 1 2 2 3 2 2 2 3 4 4 4 4 4 3 4 5 5 5 5 4 4 4 5 5 5 5 5 6 5 5 5 5 5 5 5 5 5 5 5 6
3 2 2 1 2 3 3 1 1 2 3 4 3 2 2 2 3 3 3 3 3 3 3 3 3 3 4 4 4 4 4 4 4 3 4 4 4 4 4 4 4 4 4
3 2 2 2 2 3 3 2 1 3 3 3 3 2 2 1 1 1 1 2 2 2 2 2 2 2 3 3 3 4 4 4 4 4 3 3 3 3 3 3 4 3 3
3 3 2 1 1 2 2 2 2 2 3 2 1 1 0 0 -0 -0 0 1 1 1 1 1 2 1 1 2 2 3 3 2 3 3 3 3 3 3 3 3 3 3 3
3 3 3 2 2 2 2 2 2 2 2 2 1 1 0 -0 -1 -1 -1 -1 -0 0 0 0 0 1 1 0 1 1 1 2 2 3 3 3 2 2 2 2 1 2 2
3 3 3 3 2 2 2 2 2 2 2 2 1 1 1 0 0 0 -1 -1 -1 -2 -1 -1 -1 -1 -1 -1 -1 -1 -0 -0 1 1 1 1 0 0 0 0 0 0 0